Weather History for Albany, GA

Change the Weather History Date:

Tuesday, September 4, 2012

  Actual Average Record
Temperature  
Mean Temperature 76 °F 80 °F  
Max Temperature 80 °F 91 °F 100 °F (1944)
Min Temperature 72 °F 70 °F 62 °F (1952)
Degree Days  
Heating Degree Days 0 0  
Month to date heating degree days 0 0  
Since 1 July heating degree days 0 0  
Cooling Degree Days 11 15  
Month to date cooling degree days 67 63  
Year to date cooling degree days 2343 2036  
Growing Degree Days 26 (Base 50)    
Moisture  
Dew Point 72 °F    
Average Humidity 87    
Maximum Humidity 100    
Minimum Humidity 74    
Precipitation  
Precipitation T in - 0.56 in (2011)
Month to date precipitation 0.82  
Year to date precipitation 24.86  
Sea Level Pressure  
Sea Level Pressure 29.98 in    
Wind  
Wind Speed 5 mph (SSW)    
Max Wind Speed 13 mph    
Max Gust Speed 16 mph    
Visibility 9 miles    
Events Rain    
T = Trace of Precipitation, MM = Missing Value Source: NWS Daily Summary

Daily Weather History Graph

Daily Weather History Graph

Search for Another Location

Airport:

Trip Planner

Search our weather history database for the weather conditions in past years. The results will help you decide how hot, cold, wet, or windy it might be!

Date:

Astronomy

Sep. 04, 2012 Rise Set
Actual Time 7:14 AM EDT 7:56 PM EDT
Civil Twilight 6:49 AM EDT 8:20 PM EDT
Nautical Twilight 6:20 AM EDT 8:49 PM EDT
Astronomical Twilight 5:51 AM EDT 9:19 PM EDT
Moon 10:09 PM EDT (9/4) 11:00 AM EDT (9/4)
Length of Visible Light 13h 30m
Length of Day
12h 41m
Waning Gibbous, 84% of the Moon is Illuminated
Sep 4
Waning Gibbous
Sep 8
Last Quarter
Sep 15
New
Sep 22
First Quarter
Sep 29
Full

Hourly Weather History & Observations

Time (EDT) Temp. Heat Index Dew Point Humidity Pressure Visibility Wind Dir Wind Speed Gust Speed Precip Events Conditions
12:23 AM 73.4 °F - 71.6 °F 94% 30.03 in 7.0 mi West 8.1 mph - 0.00 in Rain Light Rain
12:50 AM 73.4 °F - 73.4 °F 100% 30.01 in 6.0 mi South 5.8 mph - 0.01 in Rain Light Rain
12:53 AM 73.9 °F - 73.0 °F 97% 30.01 in 6.0 mi SSW 5.8 mph - 0.01 in Rain Light Rain
1:34 AM 73.4 °F - 73.4 °F 100% 30.01 in 9.0 mi WSW 5.8 mph - 0.00 in Rain Light Rain
1:53 AM 73.9 °F - 72.0 °F 93% 30.00 in 10.0 mi WSW 3.5 mph - 0.00 in Rain Light Rain
2:53 AM 73.9 °F - 72.0 °F 93% 29.98 in 10.0 mi Calm Calm - 0.00 in   Partly Cloudy
3:53 AM 73.0 °F - 72.0 °F 96% 29.97 in 10.0 mi Variable 4.6 mph - 0.00 in Rain Light Rain
4:21 AM 73.4 °F - 71.6 °F 94% 29.98 in 10.0 mi WNW 3.5 mph - 0.00 in   Mostly Cloudy
4:53 AM 72.0 °F - 72.0 °F 100% 29.98 in 10.0 mi SSW 4.6 mph - 0.00 in   Partly Cloudy
5:53 AM 73.0 °F - 71.1 °F 93% 29.98 in 10.0 mi Calm Calm - N/A   Overcast
6:53 AM 72.0 °F - 71.1 °F 97% 29.99 in 10.0 mi South 4.6 mph - N/A   Overcast
7:53 AM 73.0 °F - 72.0 °F 96% 30.01 in 9.0 mi South 3.5 mph - N/A   Overcast
8:03 AM 73.4 °F - 71.6 °F 94% 30.01 in 9.0 mi South 3.5 mph - N/A   Overcast
8:53 AM 73.0 °F - 72.0 °F 96% 30.00 in 8.0 mi South 4.6 mph - N/A   Overcast
9:11 AM 73.4 °F - 71.6 °F 94% 30.00 in 9.0 mi SSW 4.6 mph - N/A   Mostly Cloudy
9:31 AM 73.4 °F - 71.6 °F 94% 30.00 in 10.0 mi SSW 3.5 mph - N/A   Mostly Cloudy
9:53 AM 75.9 °F - 73.0 °F 91% 29.99 in 10.0 mi South 4.6 mph - N/A   Mostly Cloudy
10:53 AM 79.0 °F - 72.0 °F 79% 29.99 in 10.0 mi SSW 9.2 mph - N/A   Mostly Cloudy
10:55 AM 80.6 °F 85.4 °F 73.4 °F 79% 30.00 in 10.0 mi SSW 9.2 mph - N/A   Mostly Cloudy
11:53 AM 80.1 °F 83.8 °F 72.0 °F 76% 29.99 in 10.0 mi SSW 8.1 mph - N/A   Mostly Cloudy
12:53 PM 79.0 °F - 72.0 °F 79% 30.00 in 10.0 mi WSW 10.4 mph - 0.00 in Rain Light Rain
1:53 PM 75.9 °F - 72.0 °F 87% 30.01 in 10.0 mi WSW 5.8 mph - 0.00 in Rain Light Rain
2:00 PM 75.2 °F - 71.6 °F 89% 30.01 in 10.0 mi WSW 4.6 mph - 0.00 in Rain Light Rain
2:17 PM 75.2 °F - 71.6 °F 89% 30.00 in 7.0 mi WSW 5.8 mph - 0.00 in Rain Light Rain
2:50 PM 75.2 °F - 73.4 °F 94% 29.99 in 7.0 mi SSW 6.9 mph - 0.00 in Rain Light Rain
2:53 PM 75.9 °F - 73.9 °F 94% 29.99 in 7.0 mi SW 8.1 mph - 0.00 in Rain Light Rain
3:20 PM 77.0 °F - 73.4 °F 89% 29.97 in 8.0 mi SSW 8.1 mph - 0.00 in Rain Light Rain
3:53 PM 75.9 °F - 73.9 °F 94% 29.96 in 10.0 mi South 6.9 mph - 0.00 in Rain Light Rain
4:53 PM 75.9 °F - 73.9 °F 94% 29.96 in 10.0 mi WSW 5.8 mph - 0.00 in Rain Light Rain
5:53 PM 78.8 °F - 73.4 °F 83% 29.94 in 10.0 mi SW 5.8 mph - N/A Rain Light Rain
6:53 PM 77.0 °F - 73.0 °F 88% 29.95 in 10.0 mi South 4.6 mph - 0.00 in   Mostly Cloudy
6:55 PM 77.0 °F - 73.4 °F 89% 29.95 in 10.0 mi SSE 5.8 mph - N/A   Partly Cloudy
7:29 PM 77.0 °F - 73.4 °F 89% 29.95 in 10.0 mi SSE 5.8 mph - N/A   Mostly Cloudy
7:53 PM 75.9 °F - 73.0 °F 91% 29.95 in 10.0 mi Calm Calm - N/A   Mostly Cloudy
8:00 PM 75.2 °F - 73.4 °F 94% 29.96 in 10.0 mi Calm Calm - N/A   Scattered Clouds
8:53 PM 75.0 °F - 73.0 °F 94% 29.96 in 10.0 mi South 4.6 mph - N/A   Scattered Clouds
9:53 PM 73.9 °F - 73.0 °F 97% 29.96 in 10.0 mi SW 3.5 mph - N/A   Clear
10:20 PM 75.2 °F - 71.6 °F 89% 29.98 in 10.0 mi Calm Calm - N/A   Mostly Cloudy
10:44 PM 75.2 °F - 71.6 °F 89% 29.98 in 10.0 mi Calm Calm - N/A   Scattered Clouds
10:53 PM 73.9 °F - 72.0 °F 93% 29.97 in 10.0 mi Calm Calm - N/A   Clear
11:53 PM 73.0 °F - 72.0 °F 96% 29.97 in 10.0 mi ESE 3.5 mph - N/A   Scattered Clouds